Northolt, United Kingdom

6:52 PM BST on August 30, 2016 (GMT +0100)
Northolt Air Base

Weather History for EGWU - September, 2013

Change the Weather History Date:

Wednesday, September 25, 2013

  Actual Average Record
Temperature  
Mean Temperature 61 °F -  
Max Temperature 70 °F 59 °F 73 °F (1998)
Min Temperature 52 °F 47 °F 37 °F (2003)
Degree Days  
Heating Degree Days 4    
Growing Degree Days 11 (Base 50)    
Moisture  
Dew Point 56 °F    
Average Humidity 81    
Maximum Humidity 100    
Minimum Humidity 54    
Precipitation  
Precipitation 0.00 in - - ()
Sea Level Pressure  
Sea Level Pressure 29.87 in    
Wind  
Wind Speed 2 mph ()    
Max Wind Speed 6 mph    
Max Gust Speed -    
Visibility 3.1 miles    
Events Rain    
Averages and records for this station are not official NWS values.
T = Trace of Precipitation, MM = Missing Value Source: Averaged Metar Reports

Daily Weather History Graph

Daily Weather History Graph

Search for Another Location

Airport or City:

Trip Planner

Search our weather history database for the weather conditions in past years. The results will help you decide how hot, cold, wet, or windy it might be!

Date:

Astronomy

Sep. 25, 2013 Rise Set
Actual Time 6:52 AM BST 6:52 PM BST
Civil Twilight 6:19 AM BST 7:26 PM BST
Nautical Twilight 5:40 AM BST 8:05 PM BST
Astronomical Twilight 4:59 AM BST 8:45 PM BST
Moon 10:10 PM BST (9/25) 1:23 PM BST (9/25)
Length of Visible Light 13h 06m
Length of Day
12h 00m
Waning Gibbous, 66% of the Moon is Illuminated
Sep 25
Waning Gibbous
Sep 27
Last Quarter
Oct 5
New
Oct 12
First Quarter
Oct 19
Full

Hourly Weather History & Observations

Time (BST) Temp. Dew Point Humidity Pressure Visibility Wind Dir Wind Speed Gust Speed Precip Events Conditions
12:50 AM 54 °F 53 °F 95% 29.94 in 2 mi NW 1.2 mph - -   Partly Cloudy
12:50 AM 55.4 °F 53.6 °F 94% 29.92 in - NW 1.2 mph - N/A   Scattered Clouds
1:50 AM 53.6 °F 51.8 °F 94% 29.92 in 1.4 mi ENE 2.3 mph - N/A   Partly Cloudy
2:50 AM 55.4 °F 53.6 °F 94% 29.92 in 1.2 mi NE 1.2 mph - N/A   Partly Cloudy
3:50 AM 55.4 °F 55.4 °F 100% 29.89 in 1.2 mi SE 1.2 mph - N/A   Scattered Clouds
4:50 AM 55.4 °F 53.6 °F 94% 29.89 in 1.6 mi East 1.2 mph - N/A   Partly Cloudy
5:50 AM 57.2 °F 55.4 °F 94% 29.89 in 1.4 mi ENE 1.2 mph - N/A   Unknown
6:50 AM 57 °F 55 °F 92% 29.88 in 2 mi East 2.3 mph - -   Mist
6:50 AM 57.2 °F 55.4 °F 94% 29.86 in 1.6 mi East 2.3 mph - N/A   Mostly Cloudy
7:40 AM 57.2 °F 55.4 °F 94% 29.86 in 1.6 mi East 4.6 mph - N/A   Mostly Cloudy
7:50 AM 57.2 °F 55.4 °F 94% 29.86 in 1.7 mi ENE 4.6 mph - N/A   Mostly Cloudy
8:50 AM 57.2 °F 55.4 °F 94% 29.86 in - ESE 2.3 mph - N/A   Haze
9:50 AM 60 °F 56 °F 84% 29.88 in 2 mi ESE 3.5 mph - -   Haze
9:50 AM 60.8 °F 57.2 °F 88% 29.86 in 2.2 mi ESE 3.5 mph - N/A   Haze
10:33 AM 60.8 °F 57.2 °F 88% 29.86 in - East 1.2 mph - N/A   Haze
10:50 AM 62.6 °F 57.2 °F 82% 29.89 in - SW 2.3 mph - N/A   Haze
11:50 AM 62.6 °F 57.2 °F 82% 29.86 in 2.5 mi WNW 2.3 mph - N/A   Haze
12:50 PM 66 °F 58 °F 68% 29.87 in 3 mi SE 1.2 mph - -   Haze
12:50 PM 66.2 °F 57.2 °F 73% 29.86 in 3.1 mi SE 1.2 mph - N/A   Haze
1:50 PM 69.8 °F 59.0 °F 68% 29.86 in 3.7 mi WSW 4.6 mph - N/A   Haze
2:50 PM 68.0 °F 57.2 °F 68% 29.83 in 4.3 mi NW 3.5 mph - N/A   Haze
3:50 PM 70 °F 57 °F 54% 29.85 in 4 mi West 2.3 mph - -   Haze
3:50 PM 69.8 °F 57.2 °F 64% 29.83 in 4.3 mi West 2.3 mph - N/A   Haze
4:50 PM 69.8 °F 57.2 °F 64% 29.83 in 5.0 mi West 3.5 mph - N/A   Haze
5:50 PM 69.8 °F 57.2 °F 64% 29.83 in 5.0 mi North 3.5 mph - N/A   Haze
6:50 PM 65 °F 56 °F 66% 29.86 in 5 mi North 4.6 mph - -   Haze
6:50 PM 66.2 °F 57.2 °F 73% 29.86 in 5.0 mi North 4.6 mph - N/A   Haze
7:50 PM 66.2 °F 57.2 °F 73% 29.86 in 5.0 mi NE 3.5 mph - N/A   Haze
8:50 PM 64.4 °F 57.2 °F 77% 29.86 in 4.3 mi NE 3.5 mph - N/A   Haze
9:50 PM 64 °F 58 °F 75% 29.89 in 4 mi ENE 4.6 mph - - Rain Light Rain
9:50 PM 64.4 °F 57.2 °F 77% 29.89 in 4.3 mi ENE 4.6 mph - N/A Rain Light Rain
10:50 PM 62.6 °F 57.2 °F 82% 29.89 in 3.1 mi ENE 5.8 mph - N/A   Haze
11:50 PM 62.6 °F 55.4 °F 77% 29.92 in 4.3 mi NE 5.8 mph - N/A   Mostly Cloudy